Notices

What’s New in latest Release from January 14th 2021:

·       In Historical Hourly Data Report, users can switch between Local Standard Time (LST) and Universal Time Coordinates (UTC) time.

·       In Historical Hourly Data Report, we have an addition of a new column to display hourly precipitation data for the stations where the data are available, from 2001 onwards.

·       Expanded the Search Options of the Canadian Historical Weather Radar, users now able to select 24 hours (1 image every hour) image viewing duration.

Please note that the IDF dataset is available through this link: Intensity-Duration-Frequency (IDF) Files .

Hourly Data Report for June 27, 2018

LONDON CS
ONTARIO
Current Station Operator: ECCC - MSC

43°02'00.000" N
81°09'00.000" W
278.00 m
6144478
71622
WSN

Download Data

Hourly Data (June 2018)
Hourly Data Report for June 27, 2018
TIME
LST
Temp Definition
°C
Dew Point Definition
°C
Rel Hum Definition
%
Precip. Amount Definition
mm

Wind Dir Definition
10's deg

Wind Spd Definition
km/h
Visibility Definition
km
Stn Press Definition
kPa
Hmdx Definition


Wind Chill Definition


Weather Definition


00:00 18.0 12.0 68 0.0 LegendMM LegendMM   98.08     LegendNANA
01:00 15.9 14.9 94 9.3 LegendMM LegendMM   98.02     LegendNANA
02:00 16.4 15.8 96 6.4 LegendMM LegendMM   97.99     LegendNANA
03:00 16.6 16.0 96 0.4 LegendMM LegendMM   97.89     LegendNANA
04:00 16.9 16.3 96 0.0 LegendMM LegendMM   97.89     LegendNANA
05:00 17.4 16.8 97 0.0 LegendMM LegendMM   97.85     LegendNANA
06:00 17.9 17.4 97 0.0 LegendMM LegendMM   97.79     LegendNANA
07:00 18.5 18.0 97 0.0 LegendMM LegendMM   97.84     LegendNANA
08:00 19.5 18.6 95 0.0 LegendMM LegendMM   97.79     LegendNANA
09:00 19.9 18.9 94 0.0 LegendMM LegendMM   97.73     LegendNANA
10:00 20.6 19.1 91 0.0 LegendMM LegendMM   97.66 27   LegendNANA
11:00 20.2 18.8 92 0.0 LegendMM LegendMM   97.65 27   LegendNANA
12:00 20.2 18.9 92 0.0 LegendMM LegendMM   97.63 27   LegendNANA
13:00 21.7 19.6 88 0.0 LegendMM LegendMM   97.56 29   LegendNANA
14:00 23.1 19.5 80 0.0 LegendMM LegendMM   97.50 30   LegendNANA
15:00 22.5 19.7 84 0.0 LegendMM LegendMM   97.44 30   LegendNANA
16:00 21.2 19.2 89 0.0 LegendMM LegendMM   97.41 28   LegendNANA
17:00 21.1 19.6 91 0.0 LegendMM LegendMM   97.37 28   LegendNANA
18:00 21.7 19.7 88 0.0 LegendMM LegendMM   97.36 29   LegendNANA
19:00 21.0 19.5 91 0.0 LegendMM LegendMM   97.36 28   LegendNANA
20:00 20.6 19.4 93 0.0 LegendMM LegendMM   97.38 28   LegendNANA
21:00 20.1 19.1 94 0.0 LegendMM LegendMM   97.43 27   LegendNANA
22:00 19.9 19.0 95 0.0 LegendMM LegendMM   97.46     LegendNANA
23:00 20.0 19.1 95 0.0 LegendMM LegendMM   97.50 27   LegendNANA

Notes on Data Quality.

Legend

  • E = Estimated
  • M = Missing
  • NA = Not Available*
  • [empty] = Indicates an unobserved value
Date modified: